| time (UTC) | temp F | wind direction | speed knots | gust knots | rain 1hr in | rain 24hr in | rain mn in | humidity % | barometer mb |
| 20260507135536 | 57 | 0.0 | 1.7 | 0.00 | 0.79 | 0.16 | 79 | 1019.2 | |
| 20260507134536 | 57 | 0.0 | 1.7 | 0.00 | 0.86 | 0.16 | 80 | 1019.3 | |
| 20260507133556 | 56 | 0.0 | 0.9 | 0.00 | 0.93 | 0.16 | 80 | 1019.3 | |
| 20260507132515 | 56 | 0.0 | 1.7 | 0.00 | 0.96 | 0.16 | 79 | 1019.3 | |
| 20260507131515 | 56 | 0.0 | 0.9 | 0.00 | 0.97 | 0.16 | 79 | 1019.2 | |
| 20260507130515 | 56 | 0.0 | 0.9 | 0.00 | 1.00 | 0.16 | 81 | 1019.2 | |
| 20260507125535 | 55 | 0.0 | 2.6 | 0.00 | 1.07 | 0.16 | 84 | 1019.1 | |
| 20260507124515 | 54 | 0.0 | 1.7 | 0.00 | 1.10 | 0.16 | 85 | 1019.0 | |
| 20260507123515 | 53 | 0.0 | 0.9 | 0.00 | 1.10 | 0.16 | 85 | 1019.0 | |
| 20260507122515 | 53 | 0.0 | 0.9 | 0.00 | 1.10 | 0.16 | 85 | 1018.9 | |
| 20260507121515 | 53 | 0.0 | 1.7 | 0.00 | 1.10 | 0.16 | 85 | 1019.0 | |
| 20260507120516 | 53 | 0.0 | 0.9 | 0.00 | 1.10 | 0.16 | 86 | 1018.9 | |
| 20260507115515 | 53 | 0.0 | 1.7 | 0.00 | 1.10 | 0.16 | 87 | 1018.8 | |
| 20260507114537 | 53 | 0.0 | 0.9 | 0.00 | 1.10 | 0.16 | 87 | 1018.8 | |
| 20260507113517 | 52 | 0.0 | 0.0 | 0.00 | 1.10 | 0.16 | 86 | 1018.7 | |
| 20260507112517 | 52 | 0.0 | 0.9 | 0.00 | 1.10 | 0.16 | 85 | 1018.7 | |
| 20260507111517 | 53 | 0.0 | 0.9 | 0.00 | 1.10 | 0.16 | 84 | 1018.7 | |
| 20260507110517 | 53 | 0.0 | 0.9 | 0.00 | 1.10 | 0.16 | 84 | 1018.8 | |
| 20260507105517 | 53 | 0.0 | 0.9 | 0.00 | 1.10 | 0.16 | 85 | 1018.8 | |
| 20260507104517 | 52 | 293 | 0.9 | 3.5 | 0.00 | 1.10 | 0.16 | 84 | 1018.7 |
| 20260507103517 | 52 | 0.0 | 2.6 | 0.00 | 1.10 | 0.16 | 84 | 1018.7 | |
| 20260507102538 | 52 | 0.0 | 1.7 | 0.00 | 1.10 | 0.16 | 85 | 1018.7 | |
| 20260507101517 | 52 | 0.0 | 1.7 | 0.00 | 1.10 | 0.16 | 84 | 1018.6 | |
| 20260507100517 | 52 | 0.0 | 0.9 | 0.00 | 1.10 | 0.16 | 85 | 1018.5 | |
| 20260507095517 | 52 | 0.0 | 5.2 | 0.00 | 1.10 | 0.16 | 86 | 1018.5 | |
| 20260507094517 | 51 | 0.0 | 2.6 | 0.00 | 1.10 | 0.16 | 87 | 1018.5 | |
| 20260507093517 | 51 | 0.0 | 1.7 | 0.00 | 1.10 | 0.16 | 90 | 1018.3 | |
| 20260507092537 | 51 | 293 | 0.9 | 7.8 | 0.00 | 1.10 | 0.16 | 90 | 1018.3 |
| 20260507091517 | 50 | 0.0 | 0.9 | 0.00 | 1.10 | 0.16 | 92 | 1018.1 | |
| 20260507090517 | 50 | 0.0 | 2.6 | 0.00 | 1.10 | 0.16 | 92 | 1018.1 | |
| 20260507085517 | 50 | 0.0 | 0.9 | 0.00 | 1.10 | 0.16 | 93 | 1017.8 | |
| 20260507084517 | 50 | 0.0 | 1.7 | 0.00 | 1.10 | 0.16 | 93 | 1017.8 | |
| 20260507083517 | 50 | 0.0 | 0.9 | 0.00 | 1.10 | 0.16 | 93 | 1017.8 | |
| 20260507082517 | 49 | 0.0 | 0.9 | 0.00 | 1.10 | 0.16 | 93 | 1017.7 | |
| 20260507081517 | 49 | 0.0 | 0.9 | 0.01 | 1.10 | 0.16 | 94 | 1017.6 | |
| 20260507080517 | 49 | 0.0 | 1.7 | 0.01 | 1.10 | 0.16 | 94 | 1017.6 | |
| 20260507075516 | 49 | 0.0 | 0.9 | 0.01 | 1.10 | 0.16 | 94 | 1017.3 | |
| 20260507074517 | 49 | 0.0 | 1.7 | 0.01 | 1.10 | 0.16 | 94 | 1017.2 | |
| 20260507073537 | 50 | 0.0 | 0.9 | 0.01 | 1.10 | 0.16 | 94 | 1017.1 | |
| 20260507072517 | 50 | 0.0 | 0.9 | 0.01 | 1.10 | 0.16 | 94 | 1017.0 | |
| 20260507071517 | 50 | 0.0 | 0.0 | 0.00 | 1.09 | 0.15 | 94 | 1016.8 | |
| 20260507070516 | 50 | 0.0 | 0.9 | 0.00 | 1.09 | 0.15 | 94 | 1016.7 | |
| 20260507065516 | 49 | 0.0 | 0.9 | 0.00 | 1.09 | 0.15 | 94 | 1016.6 | |
| 20260507064517 | 49 | 0.0 | 0.0 | 0.00 | 1.09 | 0.15 | 94 | 1016.5 | |
| 20260507063517 | 49 | 0.0 | 0.0 | 0.00 | 1.09 | 0.15 | 94 | 1016.4 | |
| 20260507062516 | 49 | 0.0 | 0.0 | 0.01 | 1.09 | 0.15 | 94 | 1016.4 | |
| 20260507061516 | 49 | 0.0 | 1.7 | 0.01 | 1.09 | 0.15 | 94 | 1016.3 | |
| 20260507060517 | 48 | 0.0 | 1.7 | 0.02 | 1.09 | 0.15 | 94 | 1016.2 | |
| 20260507055517 | 48 | 0.0 | 0.9 | 0.02 | 1.09 | 0.15 | 94 | 1016.1 | |
| 20260507054517 | 48 | 0.0 | 0.9 | 0.02 | 1.09 | 0.15 | 94 | 1016.1 | |
| 20260507053518 | 48 | 0.0 | 2.6 | 0.02 | 1.09 | 0.15 | 94 | 1016.0 | |
| 20260507052517 | 48 | 0.0 | 0.9 | 0.01 | 1.08 | 0.14 | 94 | 1016.0 | |
| 20260507051517 | 48 | 0.0 | 0.0 | 0.01 | 1.08 | 0.14 | 94 | 1015.8 | |
| 20260507050517 | 48 | 0.0 | 0.0 | 0.00 | 1.07 | 0.13 | 94 | 1015.7 | |
| 20260507045517 | 48 | 0.0 | 0.9 | 0.01 | 1.07 | 0.13 | 94 | 1015.5 | |
| 20260507044536 | 48 | 0.0 | 0.0 | 0.01 | 1.07 | 0.13 | 94 | 1015.5 | |
| 20260507043517 | 48 | 0.0 | 0.0 | 0.02 | 1.07 | 0.13 | 94 | 1015.3 | |
| 20260507042516 | 48 | 0.0 | 0.0 | 0.02 | 1.07 | 0.13 | 94 | 1015.1 | |
| 20260507041516 | 48 | 0.0 | 0.0 | 0.02 | 1.07 | 0.13 | 94 | 1015.0 | |
| 20260507040536 | 48 | 0.0 | 0.9 | 0.03 | 1.07 | 0.13 | 94 | 1015.0 | |
| 20260507035517 | 48 | 0.0 | 1.7 | 0.02 | 1.06 | 0.12 | 94 | 1014.9 | |
| 20260507034537 | 48 | 0.0 | 0.9 | 0.03 | 1.06 | 0.12 | 94 | 1014.8 | |
| 20260507033516 | 48 | 0.0 | 0.9 | 0.02 | 1.05 | 0.11 | 94 | 1014.9 | |
| 20260507032516 | 48 | 0.0 | 0.9 | 0.02 | 1.05 | 0.11 | 94 | 1014.7 | |
| 20260507031536 | 48 | 0.0 | 0.9 | 0.02 | 1.05 | 0.11 | 93 | 1014.7 | |
| 20260507030536 | 48 | 0.0 | 0.9 | 0.01 | 1.04 | 0.10 | 94 | 1014.6 | |
| 20260507025518 | 49 | 0.0 | 0.9 | 0.02 | 1.04 | 0.10 | 94 | 1014.6 | |
| 20260507024516 | 49 | 0.0 | 0.0 | 0.01 | 1.03 | 0.09 | 94 | 1014.5 | |
| 20260507023516 | 49 | 0.0 | 0.9 | 0.01 | 1.03 | 0.09 | 94 | 1014.3 | |
| 20260507022516 | 49 | 0.0 | 0.9 | 0.01 | 1.03 | 0.09 | 94 | 1014.2 | |
| 20260507021537 | 49 | 0.0 | 0.0 | 0.02 | 1.03 | 0.09 | 94 | 1014.1 | |
| 20260507020516 | 49 | 0.0 | 1.7 | 0.02 | 1.03 | 0.09 | 94 | 1014.0 | |
| 20260507015516 | 49 | 0.0 | 0.0 | 0.01 | 1.02 | 0.08 | 94 | 1013.8 | |
| 20260507014517 | 49 | 0.0 | 0.9 | 0.02 | 1.02 | 0.08 | 94 | 1013.7 | |
| 20260507013516 | 49 | 0.0 | 0.0 | 0.03 | 1.02 | 0.08 | 94 | 1013.6 | |
| 20260507012516 | 49 | 0.0 | 0.9 | 0.03 | 1.02 | 0.08 | 93 | 1013.6 | |
| 20260507011516 | 49 | 0.0 | 0.9 | 0.02 | 1.01 | 0.07 | 94 | 1013.7 | |
| 20260507010516 | 49 | 0.0 | 0.9 | 0.02 | 1.01 | 0.07 | 93 | 1013.6 | |
| 20260507005516 | 49 | 0.0 | 0.9 | 0.03 | 1.01 | 0.07 | 93 | 1013.7 | |
| 20260507004516 | 49 | 0.0 | 0.9 | 0.02 | 1.00 | 0.06 | 93 | 1013.6 | |
| 20260507003516 | 49 | 0.0 | 0.9 | 0.01 | 0.99 | 0.05 | 93 | 1013.5 | |
| 20260507002517 | 49 | 0.0 | 0.9 | 0.01 | 0.99 | 0.05 | 93 | 1013.6 | |
| 20260507001516 | 49 | 0.0 | 0.9 | 0.01 | 0.99 | 0.05 | 93 | 1013.6 | |
| 20260507000536 | 49 | 0.0 | 1.7 | 0.01 | 0.99 | 0.05 | 93 | 1013.6 | |
| 20260506235516 | 49 | 0.0 | 0.9 | 0.00 | 0.98 | 0.04 | 93 | 1013.8 | |
| 20260506234516 | 49 | 0.0 | 0.9 | 0.01 | 0.98 | 0.04 | 93 | 1013.7 | |
| 20260506233516 | 49 | 0.0 | 0.9 | 0.01 | 0.98 | 0.04 | 93 | 1013.8 | |
| 20260506232516 | 49 | 0.0 | 0.9 | 0.02 | 0.98 | 0.04 | 93 | 1013.9 | |
| 20260506231516 | 49 | 0.0 | 0.9 | 0.03 | 0.98 | 0.04 | 93 | 1013.9 | |
| 20260506230516 | 49 | 0.0 | 0.9 | 0.04 | 0.98 | 0.04 | 93 | 1013.8 | |
| 20260506225516 | 49 | 0.0 | 0.9 | 0.05 | 0.98 | 0.04 | 93 | 1013.9 | |
| 20260506224537 | 49 | 0.0 | 1.7 | 0.05 | 0.97 | 0.03 | 93 | 1013.9 | |
| 20260506223516 | 49 | 0.0 | 0.9 | 0.06 | 0.97 | 0.03 | 93 | 1014.0 | |
| 20260506222516 | 50 | 0.0 | 0.9 | 0.06 | 0.96 | 0.02 | 93 | 1013.8 | |
| 20260506221516 | 50 | 0.0 | 0.9 | 0.05 | 0.95 | 0.01 | 93 | 1013.9 | |
| 20260506220516 | 50 | 0.0 | 1.7 | 0.04 | 0.94 | 0.00 | 93 | 1013.7 | |
| 20260506215516 | 50 | 0.0 | 1.7 | 0.03 | 0.93 | 0.93 | 93 | 1013.5 | |
| 20260506214516 | 50 | 0.0 | 0.9 | 0.03 | 0.92 | 0.92 | 93 | 1013.5 | |
| 20260506213516 | 50 | 0.0 | 2.6 | 0.02 | 0.91 | 0.91 | 93 | 1013.3 | |
| 20260506212516 | 50 | 0.0 | 0.9 | 0.01 | 0.90 | 0.90 | 93 | 1013.3 | |
| 20260506211516 | 50 | 0.0 | 2.6 | 0.02 | 0.90 | 0.90 | 93 | 1013.2 | |
| 20260506210536 | 51 | 293 | 0.9 | 2.6 | 0.03 | 0.90 | 0.90 | 93 | 1013.1 |
| 20260506205516 | 51 | 0.0 | 1.7 | 0.05 | 0.90 | 0.90 | 93 | 1012.9 | |
| 20260506204517 | 51 | 315 | 0.9 | 2.6 | 0.07 | 0.89 | 0.89 | 93 | 1012.9 |
| 20260506203516 | 51 | 23 | 0.9 | 1.7 | 0.10 | 0.89 | 0.89 | 93 | 1012.9 |
| 20260506202516 | 51 | 23 | 0.9 | 2.6 | 0.11 | 0.89 | 0.89 | 93 | 1012.8 |
| 20260506201516 | 51 | 293 | 0.9 | 1.7 | 0.12 | 0.88 | 0.88 | 93 | 1012.8 |
| 20260506200516 | 51 | 315 | 0.9 | 1.7 | 0.12 | 0.87 | 0.87 | 93 | 1012.7 |
| 20260506195516 | 51 | 0.0 | 1.7 | 0.11 | 0.85 | 0.85 | 92 | 1012.7 | |
| 20260506194515 | 51 | 0.0 | 1.7 | 0.09 | 0.82 | 0.82 | 93 | 1012.6 | |
| 20260506193516 | 51 | 0.0 | 1.7 | 0.07 | 0.79 | 0.79 | 93 | 1012.4 | |
| 20260506192536 | 52 | 0.0 | 1.7 | 0.06 | 0.78 | 0.78 | 92 | 1012.2 | |
| 20260506191515 | 52 | 0.0 | 1.7 | 0.05 | 0.76 | 0.76 | 93 | 1012.1 | |
| 20260506190536 | 52 | 0.0 | 1.7 | 0.05 | 0.75 | 0.75 | 92 | 1011.9 | |
| 20260506185516 | 52 | 293 | 0.9 | 2.6 | 0.04 | 0.74 | 0.74 | 92 | 1011.8 |
| 20260506184515 | 52 | 0.0 | 1.7 | 0.04 | 0.73 | 0.73 | 92 | 1011.5 | |
| 20260506183516 | 52 | 0.0 | 0.9 | 0.03 | 0.72 | 0.72 | 92 | 1011.5 | |
| 20260506182537 | 52 | 0.0 | 0.9 | 0.03 | 0.72 | 0.72 | 92 | 1011.4 | |
| 20260506181516 | 53 | 0.0 | 0.9 | 0.02 | 0.72 | 0.71 | 92 | 1011.2 | |
| 20260506180515 | 53 | 0.0 | 0.9 | 0.01 | 0.71 | 0.70 | 92 | 1011.1 | |
| 20260506175515 | 53 | 0.0 | 0.9 | 0.01 | 0.72 | 0.70 | 92 | 1011.1 | |
| 20260506174515 | 53 | 0.0 | 1.7 | 0.00 | 0.71 | 0.69 | 92 | 1011.0 | |
| 20260506173536 | 53 | 0.0 | 0.9 | 0.00 | 0.72 | 0.69 | 92 | 1011.0 | |
| 20260506172516 | 53 | 0.0 | 0.9 | 0.00 | 0.72 | 0.69 | 92 | 1010.8 | |
| 20260506171515 | 53 | 0.0 | 0.0 | 0.00 | 0.73 | 0.69 | 92 | 1010.8 | |
| 20260506170516 | 53 | 0.0 | 0.0 | 0.00 | 0.73 | 0.69 | 92 | 1010.8 | |
| 20260506165515 | 54 | 0.0 | 0.0 | 0.00 | 0.73 | 0.69 | 92 | 1010.7 | |
| 20260506164515 | 54 | 0.0 | 0.0 | 0.00 | 0.73 | 0.69 | 92 | 1010.8 | |
| 20260506163515 | 54 | 0.0 | 0.0 | 0.00 | 0.73 | 0.69 | 92 | 1010.7 | |
| 20260506162536 | 54 | 0.0 | 0.9 | 0.01 | 0.73 | 0.69 | 91 | 1010.8 | |
| 20260506161515 | 54 | 0.0 | 0.0 | 0.01 | 0.73 | 0.69 | 92 | 1010.7 | |
| 20260506160515 | 54 | 0.0 | 0.9 | 0.01 | 0.73 | 0.69 | 92 | 1010.8 | |
| 20260506155515 | 54 | 0.0 | 0.9 | 0.03 | 0.73 | 0.69 | 91 | 1010.7 | |
| 20260506154515 | 54 | 0.0 | 1.7 | 0.07 | 0.73 | 0.69 | 91 | 1010.7 | |
| 20260506153515 | 54 | 0.0 | 0.0 | 0.13 | 0.73 | 0.69 | 91 | 1010.6 | |
| 20260506152515 | 54 | 0.0 | 2.6 | 0.17 | 0.72 | 0.68 | 91 | 1010.6 | |
| 20260506151515 | 54 | 0.0 | 0.9 | 0.24 | 0.72 | 0.68 | 91 | 1010.7 | |
| 20260506150537 | 54 | 0.0 | 0.9 | 0.31 | 0.72 | 0.68 | 91 | 1010.6 | |
| 20260506145515 | 53 | 0.0 | 0.0 | 0.35 | 0.70 | 0.66 | 91 | 1010.4 | |
| 20260506144515 | 53 | 0.0 | 0.0 | 0.38 | 0.67 | 0.61 | 91 | 1010.3 | |
| 20260506143517 | 53 | 0.0 | 0.0 | 0.39 | 0.62 | 0.56 | 90 | 1010.3 | |
| 20260506142537 | 53 | 0.0 | 0.9 | 0.37 | 0.58 | 0.50 | 90 | 1010.2 | |
| 20260506141517 | 53 | 0.0 | 0.9 | 0.31 | 0.52 | 0.44 | 90 | 1010.1 | |
| 20260506140517 | 54 | 0.0 | 0.9 | 0.27 | 0.45 | 0.37 | 89 | 1010.2 |